Probability
0 0 0 1 2 3 3 1 0 0 0 0 0 0 1 1 1 0 0 0 1 0 0 0 0 0 0 0 0 0 0 0 0 0 0 0 0 0 0 0 0 0 0
0 0 0 1 2 3 3 2 1 0 0 0 0 1 2 2 2 1 0 0 1 1 1 0 0 0 0 0 0 0 0 0 0 0 0 0 0 0 0 0 0 0 0
0 0 0 1 2 3 3 3 2 1 0 0 0 1 3 3 2 1 0 0 1 2 2 1 0 0 0 0 0 0 0 0 0 0 0 0 0 0 0 0 0 0 0
0 0 0 0 1 1 2 3 3 2 1 0 0 2 3 3 2 1 0 0 0 1 2 2 1 1 0 0 0 0 0 0 0 0 0 0 0 0 0 0 0 0 0
0 0 0 0 0 0 1 1 2 3 2 1 0 1 2 2 1 0 0 0 0 1 2 3 2 1 0 0 0 0 0 0 0 0 0 0 0 0 0 0 0 0 0
0 0 0 0 0 0 0 0 1 2 3 2 1 0 1 1 0 0 0 0 0 0 1 3 3 2 0 0 0 0 0 0 0 0 0 0 0 0 0 0 0 0 0
0 0 0 0 0 0 0 0 0 1 2 3 2 1 0 0 0 0 0 0 0 0 1 2 3 2 1 0 0 0 0 0 0 0 0 0 0 0 0 0 0 0 0
0 0 0 0 0 0 0 0 0 0 1 2 2 1 0 0 0 0 0 0 0 0 0 1 3 2 1 0 0 0 0 0 0 0 0 0 0 0 0 0 0 0 0
0 0 0 0 0 0 0 0 0 0 0 1 1 1 0 0 0 0 0 0 0 0 0 1 2 2 1 0 0 0 0 0 0 0 0 0 0 0 0 0 0 0 0
0 0 0 0 0 0 0 0 0 0 0 0 0 0 0 0 0 0 0 0 0 0 0 0 1 1 0 0 0 0 0 0 0 0 0 0 0 0 0 0 0 0 0
0 0 0 0 0 0 0 0 0 0 0 0 0 0 0 0 0 0 0 0 0 0 0 0 0 0 0 0 0 0 0 0 0 0 0 0 0 0 0 0 0 0 0
0 0 0 0 0 0 0 0 0 0 0 0 0 0 0 0 0 0 0 0 0 0 0 0 0 0 0 0 0 0 0 0 0 0 0 0 0 0 0 0 0 0 0
0 0 0 0 0 0 0 0 0 0 0 0 0 0 0 0 0 0 0 0 0 0 0 0 0 0 0 0 0 0 0 0 0 0 0 0 0 0 0 0 0 0 0
0 0 0 0 0 0 0 0 0 0 0 0 0 0 0 0 0 0 0 0 0 0 0 0 0 0 0 0 0 0 0 0 0 0 0 0 0 0 0 0 0 0 0
0 0 0 0 0 0 0 0 0 0 0 0 0 0 0 0 0 0 0 0 0 0 0 0 0 0 0 0 0 0 0 0 0 0 0 0 0 0 0 0 0 0 0
0 0 0 0 0 0 0 0 0 0 0 0 0 0 0 0 0 0 0 0 0 0 0 0 0 0 0 0 0 0 0 0 0 0 0 0 0 0 0 0 0 0 0
0 0 0 0 0 0 0 0 0 0 0 0 0 0 0 0 0 0 0 0 0 0 0 0 0 0 0 0 0 0 0 0 0 0 0 0 0 0 0 0 0 0 0
0 0 0 0 0 0 0 0 0 0 0 0 0 0 0 0 0 0 0 0 0 0 0 0 0 0 0 0 0 0 0 0 0 0 0 0 0 0 0 0 0 0 0
0 0 0 0 0 0 0 0 0 0 0 0 0 0 0 0 0 0 0 0 0 0 0 0 0 0 0 0 0 0 0 0 0 0 0 0 0 0 0 0 0 0 0
0 0 0 0 0 0 0 0 0 0 0 0 0 0 0 0 0 0 0 0 0 0 0 0 0 0 0 0 0 0 0 0 0 0 0 0 0 0 0 0 0 0 0
0 0 0 0 0 0 0 0 0 0 0 0 0 0 0 0 0 0 0 0 0 0 0 0 0 0 0 0 0 0 0 0 0 0 0 0 0 0 0 0 0 0 0
0 0 0 0 0 0 0 0 0 0 0 0 0 0 0 0 0 0 0 0 0 0 0 0 0 0 0 0 0 0 0 0 0 0 0 0 0 0 0 0 0 0 0
0 0 0 0 0 0 0 0 0 0 0 0 0 0 0 0 0 0 0 0 0 0 0 0 0 0 0 0 0 0 0 0 0 0 0 0 0 0 0 0 0 0 0
0 0 0 0 0 0 0 0 0 0 0 0 0 0 0 0 0 0 0 0 0 0 0 0 0 0 0 0 0 0 0 0 0 0 0 0 0 0 0 0 0 0 0
0 0 0 0 0 0 0 0 0 0 0 0 0 0 0 0 0 0 0 0 0 0 0 0 0 0 0 0 0 0 0 0 0 0 0 0 0 0 0 0 0 0 0
0 0 0 0 0 0 0 0 0 0 0 0 0 0 0 0 0 0 0 0 0 0 0 0 0 0 0 0 0 0 0 0 0 0 0 0 0 0 0 0 0 0 0
Wind_Speed
5 6 7 7 8 8 9 9 9 9 9 10 11 11 12 13 14 14 15 13 15 15 13 14 16 13 11 9 9 9 10 9 12 7 4 4 7 7 6 6 6 7 8
4 5 6 6 6 7 8 9 9 9 9 10 10 10 11 12 13 14 15 15 16 16 16 15 16 12 15 11 10 12 11 10 10 11 5 4 6 7 7 7 6 6 6
3 3 4 5 5 6 7 7 8 8 9 9 9 11 11 12 12 13 14 14 16 16 16 16 16 15 16 12 12 12 10 9 9 9 7 4 4 3 4 4 4 4 5
3 3 3 4 5 6 6 6 7 8 8 9 9 10 10 10 11 11 12 14 15 15 15 15 15 16 16 14 12 13 10 10 9 9 7 4 4 3 4 4 4 5 5
3 4 4 4 4 5 5 6 6 7 8 8 8 9 9 9 9 10 11 12 13 14 13 14 14 14 16 14 11 11 11 10 9 8 8 6 5 5 6 6 7 5 5
4 4 5 5 5 5 6 6 6 7 7 7 8 8 9 8 10 13 11 11 11 12 12 12 11 13 13 17 17 16 15 13 12 10 9 9 9 8 6 6 6 5 5
4 5 5 5 6 6 6 6 7 7 7 7 8 8 9 10 11 12 13 11 11 11 11 10 9 8 11 12 13 15 15 16 17 13 12 12 10 9 9 8 8 8 7
5 6 5 5 6 7 6 7 7 6 6 7 8 8 9 9 10 10 11 11 11 11 11 11 11 10 10 11 10 11 11 12 13 13 12 10 8 8 10 10 9 6 2
6 7 7 6 7 7 8 8 7 6 7 7 6 8 9 9 9 9 9 8 9 11 10 9 10 10 12 12 11 11 10 9 9 12 12 10 10 10 10 6 6 5 4
7 8 8 7 7 8 9 8 7 6 7 6 7 7 8 9 9 9 10 6 8 8 7 7 9 11 12 12 11 11 12 10 6 5 7 7 7 9 13 11 9 7 4
8 8 8 7 8 8 8 7 7 6 6 6 7 7 7 8 9 9 10 7 7 7 7 6 6 10 11 11 12 10 12 8 6 6 6 5 4 5 6 7 6 7 6
8 9 9 8 7 7 7 7 6 6 6 6 6 7 5 5 6 8 9 10 9 8 8 6 5 8 10 11 10 11 11 8 4 5 5 5 5 5 5 5 5 4 3
9 9 9 9 7 6 6 7 6 5 5 6 5 6 6 4 5 7 8 9 9 7 7 8 8 8 8 7 9 10 7 5 5 5 6 6 5 5 4 3 3 3 3
9 9 9 8 8 7 5 5 5 5 5 5 5 6 6 5 4 3 3 4 5 6 5 5 6 7 6 5 4 5 5 5 5 6 5 4 3 4 4 4 4 4 3
8 8 8 7 7 7 6 5 6 6 5 6 6 5 6 7 7 7 6 5 4 4 3 3 3 3 3 3 3 3 3 4 4 4 4 4 4 4 4 4 4 4 4
7 7 6 6 6 6 7 7 7 7 8 8 9 8 6 8 10 10 9 9 7 6 4 4 4 4 5 4 4 3 3 4 4 4 4 4 5 5 4 4 4 5 5
6 7 6 6 6 6 6 7 8 8 7 7 8 8 8 9 9 9 8 7 6 4 3 4 4 4 4 3 3 3 3 3 3 4 4 4 4 5 5 5 5 5 5
6 6 6 6 6 6 6 6 6 7 8 7 7 8 8 8 8 7 7 5 4 2 2 3 4 4 3 3 3 3 2 3 3 4 4 4 4 4 5 5 5 5 5
6 5 5 5 5 5 6 6 5 6 6 7 7 7 7 7 7 6 5 3 3 3 3 3 3 3 3 3 3 2 3 3 3 3 4 4 4 4 4 4 4 6 5
5 7 6 5 5 5 5 5 5 5 5 6 7 7 6 5 5 5 3 2 3 4 3 3 3 2 2 2 2 2 3 3 3 3 3 4 4 4 5 6 5 6 5
5 5 7 5 4 4 4 5 5 5 5 6 6 7 10 6 5 5 5 4 3 4 3 3 3 3 3 2 2 3 3 3 3 3 4 4 4 4 4 4 5 5 5
4 4 4 4 5 5 5 4 4 5 6 7 7 7 10 5 5 5 5 5 4 3 3 3 3 3 2 2 3 3 3 3 3 4 4 4 4 4 4 4 5 5 5
4 4 4 4 4 5 5 4 4 5 5 6 6 6 6 5 5 5 6 5 5 4 3 3 3 3 2 2 2 3 4 4 3 4 4 4 4 4 4 5 6 6 6
4 4 5 5 5 4 5 5 5 5 5 5 5 5 5 5 5 6 6 6 5 5 4 3 3 4 4 3 2 3 3 3 3 3 5 5 5 4 4 5 5 6 6
4 4 4 4 4 5 5 5 5 5 5 5 5 5 5 5 5 6 5 5 5 5 6 5 4 4 4 4 4 4 4 4 4 3 4 4 5 5 5 5 5 5 6
4 4 4 4 4 4 5 5 5 5 5 5 5 5 5 5 5 6 6 5 5 5 5 5 5 5 5 4 4 4 4 4 4 4 4 4 4 4 5 4 6 6 6
Wind_Direction
232 230 232 233 231 232 232 234 233 233 229 226 221 219 217 217 216 218 222 221 225 228 226 227 229 224 225 224 221 222 224 226 245 245 208 200 195 201 199 199 201 203 209
253 245 241 239 236 235 237 239 238 239 235 230 226 224 223 221 218 220 223 223 225 228 228 228 230 225 227 225 223 225 226 223 234 247 228 204 207 202 195 196 202 203 207
276 265 260 254 249 246 245 245 243 243 242 237 231 230 228 224 222 223 225 226 228 230 229 229 230 226 228 226 224 226 225 222 225 237 238 207 202 187 187 197 201 209 210
304 289 280 276 268 264 262 258 253 248 245 242 239 238 234 230 228 226 227 229 230 232 231 230 229 226 228 226 225 226 222 221 222 228 232 211 197 177 173 195 211 211 216
317 308 296 294 290 286 281 276 270 262 255 250 246 245 242 236 232 228 230 233 235 236 234 232 231 229 229 225 224 222 219 223 221 224 228 215 200 181 197 190 207 202 214
313 304 306 307 303 295 288 283 277 271 265 259 253 249 247 244 240 234 234 239 239 240 240 237 234 227 227 226 226 222 217 221 224 223 225 222 217 205 193 185 186 182 218
316 314 316 312 307 303 297 290 281 275 271 263 258 254 254 253 247 240 234 241 244 243 241 239 237 231 224 227 226 226 227 226 223 224 228 226 217 202 185 188 193 197 210
322 317 315 313 305 301 295 285 281 278 272 268 265 260 260 260 253 248 240 240 248 248 244 239 238 235 223 219 223 227 230 230 226 227 233 232 219 196 188 192 192 189 163
327 322 317 312 305 302 297 290 286 281 275 268 268 265 263 265 255 251 244 245 248 250 247 242 239 240 231 215 218 227 232 234 226 220 226 228 216 196 178 163 165 174 202
324 318 316 313 304 297 292 290 288 281 276 276 272 265 261 266 264 255 243 242 250 253 252 246 237 237 235 215 220 224 232 232 210 212 221 224 218 200 186 189 185 187 189
322 318 317 313 305 298 296 292 291 286 281 277 275 273 264 262 266 257 245 239 241 249 250 248 241 231 232 225 222 230 234 225 204 202 206 205 196 193 194 194 191 190 192
323 319 315 312 309 306 301 299 295 288 283 278 277 281 272 263 260 260 251 244 243 245 252 252 244 233 231 230 228 229 226 216 203 199 205 208 201 199 197 188 179 182 191
323 317 313 312 310 306 301 300 298 289 280 280 277 279 285 281 272 270 265 259 254 249 252 248 248 246 240 235 226 222 215 206 201 207 213 216 204 186 165 150 136 127 99
317 315 316 316 316 315 307 299 296 293 288 284 280 280 285 286 281 278 270 264 256 252 257 255 246 243 241 235 226 219 213 205 206 214 207 195 167 165 171 165 167 161 148
315 315 316 315 314 315 312 303 297 287 276 279 280 277 281 285 286 289 289 283 272 260 265 273 267 251 239 231 220 209 204 202 208 207 196 186 179 181 180 166 167 172 178
315 317 315 315 317 317 316 315 312 296 299 288 283 281 283 280 288 289 286 282 279 265 267 259 257 248 241 233 222 217 207 207 206 195 194 192 191 189 184 174 175 184 188
310 311 312 315 317 318 317 317 318 323 320 313 309 302 292 291 291 291 288 285 283 276 267 259 258 254 251 241 229 224 223 206 190 190 195 193 188 185 182 183 184 189 192
312 310 311 312 312 311 310 310 309 311 317 319 323 318 308 298 295 298 297 296 296 288 257 257 260 259 258 252 244 237 223 196 190 192 193 190 186 185 185 189 189 190 188
314 313 312 310 310 311 312 311 309 309 309 311 316 322 328 321 317 319 318 296 282 280 269 265 266 264 260 251 244 233 221 210 198 189 191 190 186 184 191 191 187 184 185
313 316 317 313 314 315 314 313 311 312 311 312 314 319 326 326 322 326 328 307 289 284 280 270 270 268 261 253 240 226 218 211 200 196 194 191 188 187 191 189 188 187 191
314 320 322 318 316 316 315 314 312 311 308 308 307 317 329 322 313 313 312 307 295 288 285 279 274 268 261 255 244 230 222 219 208 198 194 192 189 190 191 190 191 189 183
314 316 319 316 316 317 317 317 316 313 314 313 315 324 332 326 318 314 312 310 305 297 294 286 278 273 264 255 245 235 231 225 213 203 198 194 192 192 191 190 188 184 178
316 316 317 316 314 315 316 315 313 312 311 311 313 318 325 324 319 317 314 314 316 316 312 298 284 282 277 263 252 242 237 235 225 209 200 196 194 193 190 191 188 185 185
318 316 315 315 315 314 312 311 310 310 311 312 315 317 319 321 321 321 321 321 321 321 318 311 300 291 288 283 269 255 246 242 228 215 205 202 201 195 190 188 188 187 184
314 313 311 309 310 310 310 310 309 311 312 312 312 314 317 319 318 318 319 320 322 321 321 316 308 302 295 288 282 274 263 250 235 219 208 204 199 192 186 184 182 177 175
312 311 309 309 309 310 309 309 309 311 311 311 311 310 312 313 313 314 317 319 320 317 316 314 312 309 304 298 288 283 275 259 237 215 199 190 186 183 176 175 174 173 169